Location: Alsip
(41.6689°N, 87.7387°W)
Time: 14:50:19
(UTC+00:00)

CARTOSAT-1 - Pass Details

Date: 14 July 2020
Orbit: 617 x 618 km, 97.8° (Epoch: 13 August)

Event Time Altitude Azimuth Distance (km) Brightness Sun altitude
Exits shadow 03:38:11 37° 183° (S) 965 4.1 -19.0°
Maximum altitude 03:39:49 72° 258° (WSW) 652 3.6 -19.2°
Drops below altitude 10° 03:44:09 10° 343° (NNW) 1,991 7.3 -19.7°
Sets 03:46:21 0° 346° (NNW) 2,901 8.3 -19.9°
